Home > Weather > Medford > Past weeks

Flag for USA Past Weather in Medford, Oregon, USA — Yesterday and Last 2 Weeks

Now
89 °F

Sunny.


Feels Like: 87 °F
Forecast: 62 / 95 °F
Wind: 13 mph from Northwest

Location: Rogue Valley International Airport

Current Time: Jul 26, 2016 at 8:44:47 PM

Latest Report: Jul 26, 2016 at 7:53 PM


Visibility: 10 mi

Pressure: 29.90 "Hg

Humidity: 30%

Dew Point: 54 °F

Location of MedfordLocation

Past Weather in Medford — Graph

°F

Medford Temperature Yesterday

Maximum temperature yesterday: 96 °F (at 4:53 PM)
Minimum temperature yesterday: 62 °F (at 4:53 AM)
Average temperature yesterday: 79 °F

High & Low Weather Summary for the Past Weeks

 TemperatureHumidityPressure
High98 °F (Jul 26, 5:53 PM)83% (Jul 13, 5:53 AM)30.24 "Hg (Jul 13, 5:53 AM)
Low53 °F (Jul 16, 5:53 AM)15% (Jul 15, 4:53 PM)29.83 "Hg (Jul 17, 5:53 PM)
Average73 °F45%30.01 "Hg
* Reported Jul 11 6:53 PM — Jul 26 6:53 PM, Medford, Weather by CustomWeather, © 2016

Note: Actual official high and low records may vary slightly from our data, if they occured in-between our weather recording intervals... More about our weather records

Advertising

Medford Weather History for the Previous 24 Hours

Scroll right to see more
 ConditionsComfort  
Time TempWeatherWind HumidityBarometerVisibility
6:53 PM
Tue, Jul 26
94 °FSunny.16 mph26%29.88 "Hg10 mi
5:53 PM98 °FSunny.7 mph23%29.88 "Hg10 mi
4:53 PM97 °FSunny.6 mph24%29.89 "Hg10 mi
3:53 PM96 °FSunny.No wind23%29.91 "Hg10 mi
2:53 PM93 °FSunny.8 mph26%29.94 "Hg10 mi
1:53 PM90 °FSunny.6 mph25%29.96 "Hg10 mi
12:53 PM88 °FSunny.6 mph34%29.98 "Hg10 mi
11:53 AM82 °FSunny.7 mph43%30.01 "Hg10 mi
10:53 AM79 °FSunny.No wind47%30.03 "Hg10 mi
9:53 AM75 °FSunny.3 mph52%30.05 "Hg10 mi
8:53 AM72 °FSunny.No wind55%30.06 "Hg10 mi
7:53 AM67 °FSunny.No wind63%30.07 "Hg10 mi
6:53 AM64 °FClear.No wind70%30.07 "Hg10 mi
5:53 AM63 °FClear.3 mph70%30.05 "Hg10 mi
4:53 AM65 °FClear.3 mph66%30.04 "Hg10 mi
3:53 AM67 °FClear.No wind63%30.03 "Hg10 mi
2:53 AM68 °FClear.No wind61%30.02 "Hg10 mi
1:53 AM71 °FClear.No wind55%30.01 "Hg10 mi
12:53 AM72 °FClear.5 mph53%30.01 "Hg10 mi
11:53 PM
Mon, Jul 25
75 °FClear.3 mph48%30.01 "Hg10 mi
10:53 PM75 °FClear.5 mph47%30.00 "Hg10 mi
9:53 PM78 °FClear.5 mph42%30.00 "Hg10 mi
8:53 PM83 °FSunny.6 mph36%29.97 "Hg10 mi
Weather by CustomWeather, © 2016

See weather overviewHow to use our weather pages